Tracking 17142 objects as of 27-May-2015
HD Live streaming from Space Station

SL-8 DEB

Track SL-8 DEB now!
10-day predictions
SL-8 DEB is classified as:


NORAD ID: 18545
Int'l Code: 1986-100C
Perigee: 884.2 km
Apogee: 909.3 km
Inclination: 82.9 °
Period: 102.8 minutes
Semi major axis: 7267 km
RCS: 0.0131 m2 (small)
Launch date: December 17, 1986
Source: Commonwealth of Independent States (former USSR) (CIS)

Note: This is SATELLITE DEBRIS
Your satellite tracking list
Your tracking list is empty





NASA's NSSDC Master Catalog

Two Line Element Set (TLE):
1 18545U 86100C   15147.15827517  .00000727  00000-0  47229-3 0  9995
2 18545 082.9284 044.7480 0017229 155.9365 357.5249 14.01206078438593

Source of the keplerian elements: AFSPC

N2YO: 379